This demonstration page uses our WeatherBlox Daily Observations layout. Learn more.

Left ArrowRight Arrow

Hourly Observations for June 13, 2017

Temp ( °F °C ) Dew Point ( °F °C ) Humidity (%) Winds ( mph kmh ) Pressure ( in mb ) Visibility ( mi km ) Precip ( " mm )
12:52 am 00:52 Clear 77 25 71 21.7 82 82 SSE 13 20 29.91 1013 10 16 0.00 0.00
1:52 am 01:52 Clear 75 23.9 71 21.7 88 88 S 12 19 29.91 1013 10 16 0.00 0.00
2:52 am 02:52 Clear 75 23.9 71 21.7 88 88 SSE 12 19 29.91 1013 10 16 0.00 0.00
3:52 am 03:52 Clear 74 23.3 70 21.1 88 88 SSE 10 17 29.92 1013 10 16 0.00 0.00
4:52 am 04:52 Clear 74 23.3 70 21.1 88 88 SSE 10 17 29.92 1013 10 16 0.00 0.00
5:52 am 05:52 Clear 73 22.8 70 21.1 90 90 SSE 10 17 29.92 1013 10 16 0.00 0.00
6:52 am 06:52 Sunny 74 23.3 70 21.1 88 88 SSE 12 19 29.93 1014 10 16 0.00 0.00
7:52 am 07:52 Sunny 76 24.4 70 21.1 82 82 S 13 20 29.94 1014 10 16 0.00 0.00
8:52 am 08:52 Partly Cloudy 78 25.6 70 21.1 76 76 S 14 22 29.95 1014 10 16 0.00 0.00
9:11 am 09:11 Mostly Cloudy 78 25.6 71 21.7 79 79 S 16 26 29.94 1014 10 16 0.00 0.00
9:52 am 09:52 Cloudy 80 26.7 71 21.7 74 74 S 15 24 29.96 1015 10 16 0.00 0.00
10:52 am 10:52 Cloudy 80 26.7 71 21.7 74 74 S 15 24 29.96 1014 10 16 0.00 0.00
11:13 am 11:13 Cloudy 82 27.8 72 22.2 72 72 S 14 22 29.94 1014 10 16 0.00 0.00
11:52 am 11:52 Mostly Cloudy 83 28.3 71 21.7 67 67 S 18 30 29.94 1014 10 16 0.00 0.00
12:52 pm 12:52 Mostly Cloudy 86 30 71 21.7 61 61 S 18 30 29.92 1013 10 16 0.00 0.00
1:52 pm 13:52 Mostly Cloudy 85 29.4 70 21.1 61 61 S 17 28 29.91 1013 10 16 0.00 0.00
2:52 pm 14:52 Mostly Cloudy 86 30 70 21.1 59 59 S 18 30 29.89 1012 10 16 0.00 0.00
3:52 pm 15:52 Partly Cloudy 87 30.6 71 21.7 59 59 SSE 17 28 29.87 1012 10 16 0.00 0.00
4:52 pm 16:52 Mostly Cloudy 88 31.1 70 21.1 55 55 S 16 26 29.85 1011 10 16 0.00 0.00
5:52 pm 17:52 Mostly Cloudy 87 30.6 70 21.1 57 57 S 16 26 29.85 1011 10 16 0.00 0.00
6:52 pm 18:52 Sunny 86 30 70 21.1 59 59 S 13 20 29.84 1010 10 16 0.00 0.00
7:52 pm 19:52 Sunny 84 28.9 70 21.1 63 63 S 13 20 29.84 1010 10 16 0.00 0.00
8:52 pm 20:52 Clear 81 27.2 70 21.1 69 69 SSE 10 17 29.85 1011 10 16 0.00 0.00
9:52 pm 21:52 Clear 79 26.1 70 21.1 74 74 SSE 12 19 29.87 1011 10 16 0.00 0.00
10:52 pm 22:52 Clear 79 26.1 70 21.1 74 74 SSE 15 24 29.86 1011 10 16 0.00 0.00
11:52 pm 23:52 Clear 78 25.6 71 21.7 79 79 SSE 17 28 29.86 1011 10 16 0.00 0.00

Powered by AerisWeather